Вернуться в каталог

SL-3 R/B

АктивенPO
NORAD 7210·ROCKET BODY·🇷🇺 Russia

Запущен Mar 5, 1974 с Plesetsk Cosmodrome

Loading…

Ближайшие Пролёты (ближайшие 24 часа)

TLE

СвежийSource: Space-Track

Эпоха: Sep 14, 2026, 11:42 UTC

1 07210U 74011B   26257.48793374  .00000153  00000-0  71711-4 0  9990
2 07210  81.2395 340.6537 0081351 133.3748 227.4240 14.13654316706609

Отслеживайте SL-3 R/B в реальном времени с AllMySat

Download on the App Store